Cheboygan, MI

7:55 PM EDT on April 29, 2017 (GMT -0400)
Cheboygan

Weather History for KSLH - December, 2013

Change the Weather History Date:

Thursday, December 5, 2013

  Actual Average (KMCD) Record (KMCD)
Temperature  
Mean Temperature 34 °F -  
Max Temperature 47 °F 34 °F 60 °F (2001)
Min Temperature 21 °F 26 °F 0 °F (1977)
Degree Days  
Heating Degree Days 30    
Moisture  
Dew Point 27 °F    
Average Humidity 77    
Maximum Humidity 100    
Minimum Humidity 65    
Precipitation  
Precipitation 0.00 in - - ()
Sea Level Pressure  
Sea Level Pressure 29.67 in    
Wind  
Wind Speed 15 mph (WSW)    
Max Wind Speed 29 mph    
Max Gust Speed 44 mph    
Visibility 9 miles    
Events Rain , Snow    
Averages and records for this station are not official NWS values.
T = Trace of Precipitation, MM = Missing Value Source: NWS Daily Summary

Daily Weather History Graph

Daily Weather History Graph

Search for Another Location

Airport or City:

Trip Planner

Search our weather history database for the weather conditions in past years. The results will help you decide how hot, cold, wet, or windy it might be!

Date:

Astronomy

Dec. 05, 2013 Rise Set
Actual Time 8:03 AM EST 4:54 PM EST
Civil Twilight 7:29 AM EST 5:28 PM EST
Nautical Twilight 6:51 AM EST 6:05 PM EST
Astronomical Twilight 6:15 AM EST 6:41 PM EST
Moon 10:18 AM EST (12/5) 8:19 PM EST (12/5)
Length of Visible Light 9h 59m
Length of Day
8h 51m
Waxing Crescent, 10% of the Moon is Illuminated
Dec 5
Waxing Crescent
Dec 9
First Quarter
Dec 17
Full
Dec 25
Last Quarter
Jan 1
New

Hourly Weather History & Observations

Time (EST) Temp. Windchill Dew Point Humidity Pressure Visibility Wind Dir Wind Speed Gust Speed Precip Events Conditions
12:15 AM 41.2 °F 35.0 °F 40.8 °F 99% 29.41 in 4.0 mi SE 10.4 mph - N/A   Overcast
12:35 AM 41.2 °F 36.0 °F 41.0 °F 99% 29.41 in 3.0 mi SSE 8.1 mph - N/A Rain Light Rain
12:55 AM 41.0 °F 37.1 °F 40.8 °F 99% 29.41 in 2.0 mi SSE 5.8 mph - N/A Rain Light Rain
1:15 AM 42.8 °F 38.0 °F 42.8 °F 100% 29.40 in 3.0 mi South 8.1 mph - N/A   Overcast
1:34 AM 43.7 °F 39.7 °F 43.5 °F 99% 29.40 in 2.5 mi South 6.9 mph - N/A Rain Light Rain
1:55 AM 44.2 °F 40.3 °F 44.1 °F 99% 29.40 in 3.0 mi South 6.9 mph - N/A   Overcast
2:15 AM 45.5 °F 42.5 °F 45.1 °F 99% 29.39 in 4.0 mi South 5.8 mph - N/A   Mostly Cloudy
2:34 AM 45.7 °F 41.5 °F 45.3 °F 99% 29.40 in 5.0 mi South 8.1 mph - N/A   Overcast
2:55 AM 47.3 °F - 45.7 °F 94% 29.40 in 7.0 mi SSW 9.2 mph 16.1 mph N/A   Overcast
3:15 AM 47.5 °F - 45.0 °F 91% 29.40 in 7.0 mi SSW 12.7 mph 23.0 mph N/A   Overcast
3:35 AM 46.2 °F 38.1 °F 43.0 °F 88% 29.42 in 10.0 mi WSW 23.0 mph 33.4 mph N/A   Overcast
3:55 AM 43.0 °F 34.5 °F 39.7 °F 88% 29.43 in 10.0 mi WSW 19.6 mph 26.5 mph N/A   Overcast
4:15 AM 41.9 °F 33.1 °F 38.5 °F 88% 29.45 in 10.0 mi WSW 19.6 mph 28.8 mph N/A   Overcast
4:35 AM 41.0 °F 32.5 °F 37.9 °F 89% 29.45 in 10.0 mi WSW 17.3 mph 25.3 mph N/A   Overcast
4:55 AM 40.8 °F 32.3 °F 36.9 °F 86% 29.45 in 10.0 mi WSW 17.3 mph 27.6 mph N/A   Overcast
5:15 AM 40.3 °F 31.0 °F 36.1 °F 85% 29.46 in 10.0 mi WSW 19.6 mph 28.8 mph N/A   Overcast
5:35 AM 39.9 °F 31.8 °F 35.2 °F 83% 29.46 in 10.0 mi WSW 15.0 mph 24.2 mph N/A   Overcast
5:55 AM 39.2 °F 30.8 °F 34.7 °F 84% 29.47 in 10.0 mi WSW 15.0 mph 25.3 mph N/A   Overcast
6:14 AM 38.7 °F 31.8 °F 34.7 °F 86% 29.48 in 10.0 mi SW 10.4 mph 18.4 mph N/A   Overcast
6:35 AM 38.5 °F 30.7 °F 34.0 °F 84% 29.51 in 10.0 mi SW 12.7 mph 27.6 mph N/A   Overcast
6:55 AM 37.6 °F 25.4 °F 32.4 °F 81% 29.51 in 10.0 mi SW 28.8 mph 41.4 mph N/A   Overcast
7:14 AM 36.9 °F 26.8 °F 32.4 °F 84% 29.52 in 10.0 mi SW 18.4 mph 32.2 mph N/A   Overcast
7:35 AM 36.5 °F 25.7 °F 32.0 °F 84% 29.53 in 10.0 mi SW 20.7 mph 31.1 mph N/A   Overcast
7:55 AM 36.0 °F 25.3 °F 31.1 °F 82% 29.53 in 10.0 mi WSW 19.6 mph 33.4 mph N/A   Overcast
8:14 AM 36.0 °F 25.3 °F 30.9 °F 82% 29.54 in 10.0 mi WSW 19.6 mph 32.2 mph N/A   Overcast
8:35 AM 35.8 °F 25.1 °F 30.2 °F 80% 29.55 in 10.0 mi WSW 19.6 mph 28.8 mph N/A   Overcast
8:55 AM 35.8 °F 26.1 °F 29.5 °F 78% 29.55 in 10.0 mi WSW 16.1 mph 27.6 mph N/A   Mostly Cloudy
9:15 AM 36.0 °F 25.6 °F 29.3 °F 77% 29.56 in 10.0 mi WSW 18.4 mph 25.3 mph N/A   Overcast
9:35 AM 35.6 °F 24.5 °F 28.4 °F 75% 29.57 in 10.0 mi SW 20.7 mph 35.7 mph N/A   Mostly Cloudy
9:55 AM 36.1 °F 24.4 °F 27.3 °F 70% 29.58 in 10.0 mi WSW 24.2 mph 35.7 mph N/A   Overcast
10:15 AM 35.6 °F 24.8 °F 27.7 °F 73% 29.59 in 10.0 mi SW 19.6 mph 32.2 mph N/A   Mostly Cloudy
10:35 AM 34.5 °F 22.8 °F 27.0 °F 74% 29.61 in 10.0 mi WSW 21.9 mph 41.4 mph N/A   Mostly Cloudy
10:55 AM 34.2 °F 22.1 °F 26.4 °F 73% 29.62 in 10.0 mi WSW 23.0 mph 33.4 mph N/A   Mostly Cloudy
11:15 AM 34.3 °F 22.9 °F 25.7 °F 71% 29.63 in 10.0 mi WSW 20.7 mph 36.8 mph N/A   Overcast
11:35 AM 33.4 °F 20.1 °F 24.1 °F 69% 29.63 in 10.0 mi West 27.6 mph 39.1 mph N/A   Mostly Cloudy
11:54 AM 32.4 °F 20.0 °F 23.0 °F 68% 29.65 in 10.0 mi WSW 21.9 mph 43.7 mph N/A   Overcast
12:15 PM 32.0 °F 18.4 °F 22.6 °F 68% 29.66 in 10.0 mi WSW 26.5 mph 41.4 mph N/A   Overcast
12:35 PM 31.5 °F 20.1 °F 22.6 °F 70% 29.68 in 10.0 mi WSW 17.3 mph 40.3 mph N/A   Overcast
12:55 PM 31.1 °F 19.3 °F 22.6 °F 71% 29.68 in 10.0 mi WSW 18.4 mph 28.8 mph N/A   Mostly Cloudy
1:15 PM 30.2 °F 17.8 °F 21.9 °F 71% 29.70 in 10.0 mi WSW 19.6 mph 35.7 mph N/A   Mostly Cloudy
1:34 PM 30.7 °F 20.0 °F 20.7 °F 66% 29.71 in 10.0 mi WSW 15.0 mph 32.2 mph N/A   Overcast
1:55 PM 30.2 °F 17.8 °F 20.3 °F 67% 29.73 in 10.0 mi WSW 19.6 mph 33.4 mph N/A   Overcast
2:15 PM 30.2 °F 20.2 °F 19.8 °F 65% 29.74 in 10.0 mi WSW 12.7 mph 28.8 mph N/A   Overcast
2:35 PM 29.7 °F 16.7 °F 19.8 °F 67% 29.74 in 10.0 mi WSW 20.7 mph 31.1 mph N/A   Mostly Cloudy
2:55 PM 29.7 °F 17.8 °F 20.3 °F 68% 29.75 in 10.0 mi WSW 17.3 mph 25.3 mph N/A   Mostly Cloudy
3:15 PM 29.3 °F 15.6 °F 20.3 °F 69% 29.77 in 10.0 mi WSW 23.0 mph 27.6 mph N/A   Mostly Cloudy
3:35 PM 29.1 °F 18.4 °F 20.1 °F 69% 29.78 in 10.0 mi WSW 13.8 mph 26.5 mph N/A   Overcast
3:55 PM 29.1 °F 17.9 °F 20.1 °F 69% 29.79 in 10.0 mi West 15.0 mph 36.8 mph N/A   Overcast
4:15 PM 28.9 °F 16.9 °F 20.1 °F 70% 29.80 in 10.0 mi WSW 17.3 mph 28.8 mph N/A   Mostly Cloudy
4:35 PM 28.4 °F 15.1 °F 20.1 °F 71% 29.82 in 10.0 mi WSW 20.7 mph 33.4 mph N/A   Mostly Cloudy
4:55 PM 28.2 °F 16.3 °F 19.6 °F 70% 29.83 in 10.0 mi WSW 16.1 mph 29.9 mph N/A   Mostly Cloudy
5:15 PM 28.0 °F 15.7 °F 19.6 °F 71% 29.83 in 10.0 mi WSW 17.3 mph 25.3 mph N/A   Overcast
5:35 PM 27.5 °F 16.3 °F 18.3 °F 68% 29.84 in 10.0 mi West 13.8 mph 27.6 mph N/A   Overcast
5:55 PM 27.5 °F 12.9 °F 18.3 °F 68% 29.85 in 10.0 mi WSW 24.2 mph 34.5 mph N/A   Mostly Cloudy
6:15 PM 27.1 °F 14.1 °F 18.0 °F 68% 29.85 in 10.0 mi WSW 18.4 mph 27.6 mph N/A   Mostly Cloudy
6:35 PM 26.6 °F 13.1 °F 17.6 °F 69% 29.86 in 10.0 mi West 19.6 mph 27.6 mph N/A   Mostly Cloudy
6:55 PM 26.4 °F 13.2 °F 17.1 °F 68% 29.88 in 10.0 mi West 18.4 mph 27.6 mph N/A   Overcast
7:14 PM 26.4 °F 15.0 °F 16.9 °F 67% 29.88 in 10.0 mi WSW 13.8 mph 26.5 mph N/A   Overcast
7:35 PM 26.2 °F 14.7 °F 17.2 °F 69% 29.90 in 10.0 mi WSW 13.8 mph 19.6 mph N/A   Overcast
7:55 PM 26.4 °F 14.0 °F 16.7 °F 67% 29.91 in 10.0 mi West 16.1 mph 20.7 mph N/A   Overcast
8:14 PM 26.4 °F 15.5 °F 16.7 °F 67% 29.93 in 10.0 mi WSW 12.7 mph 23.0 mph N/A   Mostly Cloudy
8:35 PM 26.2 °F 15.2 °F 16.9 °F 68% 29.95 in 10.0 mi WSW 12.7 mph 23.0 mph N/A Snow Light Snow
8:54 PM 26.2 °F 14.2 °F 16.3 °F 66% 29.96 in 10.0 mi WSW 15.0 mph 27.6 mph N/A Snow Light Snow
9:15 PM 25.7 °F 13.1 °F 16.3 °F 68% 29.97 in 10.0 mi WSW 16.1 mph 26.5 mph N/A Snow Light Snow
9:35 PM 25.7 °F 13.1 °F 16.3 °F 68% 29.97 in 10.0 mi WSW 16.1 mph 23.0 mph N/A Snow Light Snow
9:55 PM 25.2 °F 11.6 °F 15.8 °F 68% 29.98 in 10.0 mi WSW 18.4 mph 26.5 mph N/A Snow Light Snow
10:15 PM 24.8 °F 11.9 °F 16.3 °F 70% 29.99 in 10.0 mi West 16.1 mph 26.5 mph N/A Snow Light Snow
10:35 PM 24.8 °F 11.1 °F 16.0 °F 69% 30.00 in 10.0 mi West 18.4 mph 27.6 mph N/A Snow Light Snow
10:55 PM 23.9 °F 10.3 °F 16.7 °F 74% 30.01 in 7.0 mi West 17.3 mph 23.0 mph N/A Snow Light Snow
11:15 PM 23.0 °F 10.1 °F 16.7 °F 77% 30.02 in 4.0 mi West 15.0 mph 28.8 mph N/A Snow Light Snow
11:35 PM 22.1 °F 8.5 °F 16.7 °F 80% 30.03 in 3.0 mi West 16.1 mph 19.6 mph N/A Snow Light Snow
11:55 PM 21.6 °F 7.3 °F 15.6 °F 78% 30.03 in 4.0 mi West 17.3 mph 23.0 mph N/A Snow Light Snow